DELTA 1 DEB

Satellite information

Favourite Embed

Satellite Type and Status

DEBRISIN ORBIT

Key statistics

Satellite DELTA 1 DEB at a glance.

Uptime

17353

Days in orbit

Revolutions

≈ 14.0

Per day

Orbit

SSO

Sun Synchronous Orbit

Inclination

99.2

Latest

Satellite identification and parameters

Extended collection of information and parameters for DELTA 1 DEB.

Object identification

Identified? True

Debris? True

Object name: DELTA 1 DEB

International designator: 1978-026HH

Object number (NORAD): 18775

Object ID (CCSDS): 18775

Country: UNITED STATES OF AMERICA (US)

Current information (Y/N): Y

RCS size: SMALL

Orbital parameters

Period: 102.913 minutes

Inclination: 99.1547 deg

SMA: 7274.55 km

Apoapsis: 943.577 km

Periapsis: 849.254 km

RAAN: 148.93 deg

Eccentricy: 0.00648303

Argument of periapsis: 51.9689 deg

Mean anomaly: 308.7302 deg

Mean motion: 13.99244221 rev/day

Mean motion (dot): 0.00000446 rev/day2

B* drag term: 0.00033175485 1/REarth

Two-line elements (TLE)

Creation date: Sept. 6, 2025, 10:23 a.m.

Reference frame: TEME

Reference center: EARTH

Epoch: Sept. 6, 2025, 4:11 a.m. UTC

TLE line 0: 0 DELTA 1 DEB

TLE line 1: 1 18775U 78026HH 25249.17448686 .00000446 00000-0 33175-3 0 9993

TLE line 2: 2 18775 99.1547 148.9300 0064830 51.9689 308.7302 13.99244221876741

Live tracking on map

Real-time ground track for satellite DELTA 1 DEB.

In-orbit conjunctions

A list of the most updated potential collisions computed for object DELTA 1 DEB.

Target Orbit TCA Probability of collision Miss distance Type
SL-16 DEB LEO 2025-07-05 01:24:02 0.0001473413 401.0 (m) DEBRIS
METEOR 1-15 LEO 2024-12-11 22:41:52 0.01075715 12.0 (m) PAYLOAD

Associated space launch

Earth observation satellite

DELTA 1 DEB was lifted into orbit during the mission ‘Delta 2910 | Landsat 3’, on board a Delta 2910 space rocket.

The launch took place on March 5, 1978, 5:54 p.m. from Space Launch Complex 2W.

For more information about the launch, click the button.

Launch to space Delta 2910 | Landsat 3
Delta 2910 | Landsat 3

Agency: N/A

Status: Launch Successful

Launch date: March 5, 1978, 5:54 p.m. UTC

Rocket: Delta 2910

Launch pad: Space Launch Complex 2W

Location: Vandenberg SFB, CA, USA

...

Latest news about this satellite

There are no fresh news available about this satellite. Check back as we update our databases every day.


Newsletter sign-up

Weekly statistics, charts and insights to help you stay on top of the space industry.